User: anonymous   Login
Location: Unspecified
(0.0000°N, 0.0000°E)
Time: 01:48:56
(UTC+00:00)
Language:

TBA - TO BE ASSIGNED - Orbit

View from above orbital plane
View from above orbital plane
View from above satellite
View from above satellite

Ground track
Ground track

The orbit is defined by the following mean orbital elements,

1 67938U          26145.61363748 +.00000000 +00000-0 +27365-3 0 00008
2 67938  42.9980 116.4388 0000838 257.4529 102.6229 15.27601717    00
Epoch (UTC): 25 May 2026 14:43:38
Eccentricity: 0.0000838
inclination: 42.9980°
perigee height: 482 km
apogee height: 484 km
right ascension of ascending node: 116.4388°
argument of perigee: 257.4529°
revolutions per day: 15.27601717
mean anomaly at epoch: 102.6229°

The dashed part of the orbit path shows where the satellite is in the earth's shadow,  

DLR